Simultaneous Nadir Overpasses (SNOs) Predictions

Prediction of SNOs between METOP-A and NOAA-19 Satellite Orbit:

Table of predicted SNOs for the next 14.0 days since TLE Epoch: 10/14/2023
Index Date (METOP-A) Time (METOP-A) Lat,Lon (METOP-A) SZA (METOP-A ) Date (NOAA-19) Time (NOAA-19) Lat,Lon (NOAA-19) SZA (NOAA-19 ) Distance(km) Time Diff (sec)
1 10/14/2023 04:15:35 80.96, 158.69 91.69 10/14/2023 04:15:34 80.96, 158.70 91.69 0.07 1
2 10/14/2023 05:06:34 -80.96, -33.99 88.30 10/14/2023 05:06:33 -80.96, -33.98 88.30 0.07 1
3 10/14/2023 05:57:34 80.96, 133.11 91.70 10/14/2023 05:57:33 80.96, 133.11 91.70 0.07 1
4 10/14/2023 06:48:33 -80.96, -59.58 88.28 10/14/2023 06:48:32 -80.96, -59.57 88.28 0.07 1
5 10/14/2023 07:39:33 80.96, 107.53 91.72 10/14/2023 07:39:32 80.96, 107.53 91.72 0.07 1
6 10/14/2023 08:30:32 -80.96, -85.17 88.27 10/14/2023 08:30:31 -80.96, -85.16 88.27 0.07 1
7 10/14/2023 09:21:32 80.96, 81.94 91.74 10/14/2023 09:21:31 80.96, 81.95 91.74 0.07 1
8 10/14/2023 10:12:31 -80.96,-110.76 88.25 10/14/2023 10:12:30 -80.96,-110.75 88.25 0.07 1
9 10/14/2023 11:03:30 80.96, 56.74 91.80 10/14/2023 11:03:29 80.96, 56.74 91.80 0.07 1
10 10/14/2023 11:54:29 -80.96,-135.97 88.19 10/14/2023 11:54:28 -80.96,-135.97 88.19 0.07 1
11 10/14/2023 12:45:29 80.96, 31.15 91.81 10/14/2023 12:45:28 80.96, 31.16 91.81 0.07 1
12 10/14/2023 13:36:28 -80.96,-161.56 88.18 10/14/2023 13:36:27 -80.96,-161.55 88.18 0.07 1
13 10/14/2023 14:27:28 80.96, 5.57 91.83 10/14/2023 14:27:27 80.96, 5.57 91.83 0.07 1
14 10/14/2023 15:18:27 -80.96, 172.85 88.16 10/14/2023 15:18:26 -80.96, 172.86 88.16 0.07 1
15 10/14/2023 16:09:27 80.96, -20.01 91.85 10/14/2023 16:09:26 80.96, -20.01 91.85 0.07 1
16 10/14/2023 17:00:25 -80.96, 147.26 88.14 10/14/2023 17:00:24 -80.96, 147.27 88.14 0.07 1
17 10/14/2023 17:51:24 80.96, -45.22 91.91 10/14/2023 17:51:23 80.96, -45.22 91.91 0.07 1
18 10/14/2023 18:42:23 -80.96, 122.05 88.09 10/14/2023 18:42:22 -80.96, 122.05 88.09 0.07 1
19 10/14/2023 19:33:23 80.96, -70.80 91.92 10/14/2023 19:33:22 80.96, -70.80 91.92 0.07 1
20 10/14/2023 20:24:22 -80.96, 96.46 88.07 10/14/2023 20:24:21 -80.96, 96.46 88.07 0.07 1
21 10/14/2023 21:15:22 80.96, -96.39 91.94 10/14/2023 21:15:21 80.96, -96.38 91.94 0.07 1
22 10/14/2023 22:06:21 -80.96, 70.87 88.05 10/14/2023 22:06:20 -80.96, 70.87 88.05 0.07 1
23 10/14/2023 22:57:21 80.96,-121.97 91.96 10/14/2023 22:57:20 80.96,-121.97 91.96 0.07 1
24 10/14/2023 23:48:20 -80.96, 45.28 88.04 10/14/2023 23:48:19 -80.96, 45.28 88.04 0.07 1
25 10/15/2023 00:39:19 80.96,-147.18 92.01 10/15/2023 00:39:18 80.96,-147.18 92.01 0.07 1
26 10/15/2023 01:30:18 -80.96, 20.06 87.98 10/15/2023 01:30:17 -80.96, 20.07 87.98 0.07 1
27 10/15/2023 02:21:18 80.96,-172.76 92.03 10/15/2023 02:21:17 80.96,-172.76 92.03 0.07 1
28 10/15/2023 03:12:17 -80.96, -5.53 87.96 10/15/2023 03:12:16 -80.96, -5.52 87.96 0.07 1
29 10/15/2023 04:03:17 80.96, 161.65 92.05 10/15/2023 04:03:16 80.96, 161.66 92.05 0.07 1
30 10/15/2023 04:54:16 -80.96, -31.12 87.95 10/15/2023 04:54:15 -80.96, -31.11 87.95 0.07 1
31 10/15/2023 05:45:16 80.96, 136.07 92.06 10/15/2023 05:45:15 80.96, 136.07 92.06 0.07 1
32 10/15/2023 06:36:15 -80.96, -56.71 87.93 10/15/2023 06:36:14 -80.96, -56.70 87.93 0.07 1
33 10/15/2023 07:27:14 80.96, 110.86 92.12 10/15/2023 07:27:13 80.96, 110.86 92.12 0.07 1
34 10/15/2023 08:18:13 -80.96, -81.92 87.87 10/15/2023 08:18:12 -80.96, -81.92 87.87 0.07 1
35 10/15/2023 09:09:13 80.96, 85.28 92.14 10/15/2023 09:09:12 80.96, 85.28 92.14 0.07 1
36 10/15/2023 10:00:12 -80.96,-107.51 87.86 10/15/2023 10:00:11 -80.96,-107.51 87.86 0.07 1
37 10/15/2023 10:51:12 80.96, 59.69 92.16 10/15/2023 10:51:11 80.96, 59.70 92.16 0.07 1
38 10/15/2023 11:42:11 -80.96,-133.10 87.84 10/15/2023 11:42:10 -80.96,-133.10 87.84 0.07 1
39 10/15/2023 12:33:11 80.96, 34.11 92.17 10/15/2023 12:33:10 80.96, 34.11 92.17 0.07 1
40 10/15/2023 13:24:10 -80.96,-158.70 87.83 10/15/2023 13:24:09 -80.96,-158.69 87.83 0.07 1
41 10/15/2023 14:15:09 80.96, 8.90 92.23 10/15/2023 14:15:08 80.96, 8.90 92.23 0.07 1
42 10/15/2023 15:06:08 -80.96, 176.09 87.77 10/15/2023 15:06:07 -80.96, 176.09 87.77 0.07 1
43 10/15/2023 15:57:08 80.96, -16.69 92.25 10/15/2023 15:57:07 80.96, -16.68 92.25 0.07 1
44 10/15/2023 16:48:07 -80.96, 150.50 87.75 10/15/2023 16:48:06 -80.96, 150.50 87.75 0.07 1
45 10/15/2023 17:39:07 80.96, -42.27 92.26 10/15/2023 17:39:06 80.96, -42.27 92.26 0.07 1
46 10/15/2023 18:30:06 -80.96, 124.91 87.74 10/15/2023 18:30:05 -80.96, 124.91 87.74 0.07 1
47 10/15/2023 19:21:06 80.96, -67.86 92.28 10/15/2023 19:21:05 80.96, -67.85 92.28 0.07 1
48 10/15/2023 20:12:05 -80.96, 99.32 87.72 10/15/2023 20:12:04 -80.96, 99.32 87.72 0.07 1
49 10/15/2023 21:03:04 80.96, -93.06 92.34 10/15/2023 21:03:03 80.96, -93.06 92.34 0.07 1
50 10/15/2023 21:54:03 -80.96, 74.10 87.66 10/15/2023 21:54:02 -80.96, 74.10 87.66 0.07 1
51 10/15/2023 22:45:03 80.96,-118.65 92.35 10/15/2023 22:45:02 80.96,-118.65 92.35 0.07 1
52 10/15/2023 23:36:02 -80.96, 48.51 87.65 10/15/2023 23:36:01 -80.96, 48.51 87.65 0.07 1
53 10/16/2023 00:27:02 80.96,-144.23 92.37 10/16/2023 00:27:01 80.96,-144.23 92.37 0.07 1
54 10/16/2023 01:18:01 -80.96, 22.92 87.63 10/16/2023 01:18:00 -80.96, 22.92 87.63 0.07 1
55 10/16/2023 02:09:01 80.96,-169.82 92.39 10/16/2023 02:09:00 80.96,-169.82 92.39 0.07 1
56 10/16/2023 02:59:59 -80.96, -2.30 87.58 10/16/2023 02:59:58 -80.96, -2.29 87.58 0.07 1
57 10/16/2023 03:51:00 80.96, 164.59 92.40 10/16/2023 03:50:59 80.96, 164.60 92.40 0.07 1
58 10/16/2023 04:41:58 -80.96, -27.89 87.56 10/16/2023 04:41:57 -80.96, -27.89 87.56 0.07 1
59 10/16/2023 05:32:58 80.96, 139.39 92.46 10/16/2023 05:32:57 80.96, 139.39 92.46 0.07 1
60 10/16/2023 06:23:57 -80.96, -53.48 87.55 10/16/2023 06:23:56 -80.96, -53.48 87.55 0.07 1
61 10/16/2023 07:14:57 80.96, 113.80 92.48 10/16/2023 07:14:56 80.96, 113.80 92.48 0.07 1
62 10/16/2023 08:05:56 -80.96, -79.08 87.53 10/16/2023 08:05:55 -80.96, -79.07 87.53 0.07 1
63 10/16/2023 08:56:56 80.96, 88.21 92.49 10/16/2023 08:56:55 80.96, 88.22 92.49 0.07 1
64 10/16/2023 09:47:54 -80.96,-104.29 87.47 10/16/2023 09:47:53 -80.96,-104.29 87.47 0.07 1
65 10/16/2023 10:38:55 80.96, 62.63 92.51 10/16/2023 10:38:54 80.96, 62.63 92.51 0.07 1
66 10/16/2023 11:29:53 -80.96,-129.88 87.46 10/16/2023 11:29:52 -80.96,-129.88 87.46 0.07 1
67 10/16/2023 12:20:53 80.96, 37.42 92.57 10/16/2023 12:20:52 80.96, 37.42 92.57 0.07 1
68 10/16/2023 13:11:52 -80.96,-155.48 87.44 10/16/2023 13:11:51 -80.96,-155.47 87.44 0.07 1
69 10/16/2023 14:02:52 80.96, 11.83 92.58 10/16/2023 14:02:51 80.96, 11.84 92.58 0.07 1
70 10/16/2023 14:53:51 -80.96, 178.93 87.43 10/16/2023 14:53:50 -80.96, 178.94 87.43 0.07 1
71 10/16/2023 15:44:51 80.96, -13.75 92.60 10/16/2023 15:44:50 80.96, -13.75 92.60 0.07 1
72 10/16/2023 16:35:49 -80.96, 153.72 87.37 10/16/2023 16:35:48 -80.96, 153.72 87.37 0.07 1
73 10/16/2023 17:26:50 80.96, -39.34 92.62 10/16/2023 17:26:49 80.96, -39.34 92.62 0.07 1
74 10/16/2023 18:17:48 -80.96, 128.12 87.35 10/16/2023 18:17:47 -80.96, 128.13 87.35 0.07 1
75 10/16/2023 19:08:48 80.96, -64.55 92.67 10/16/2023 19:08:47 80.96, -64.55 92.67 0.07 1
76 10/16/2023 19:59:47 -80.96, 102.53 87.34 10/16/2023 19:59:46 -80.96, 102.53 87.34 0.07 1
77 10/16/2023 20:50:46 80.96, -90.14 92.69 10/16/2023 20:50:45 80.96, -90.13 92.69 0.07 1
78 10/16/2023 21:41:45 -80.96, 76.94 87.32 10/16/2023 21:41:44 -80.96, 76.94 87.32 0.07 1
79 10/16/2023 22:32:45 80.96,-115.72 92.71 10/16/2023 22:32:44 80.96,-115.72 92.71 0.07 1
80 10/16/2023 23:23:43 -80.96, 51.72 87.27 10/16/2023 23:23:42 -80.96, 51.72 87.27 0.07 1
81 10/17/2023 00:14:44 80.96,-141.31 92.72 10/17/2023 00:14:43 80.96,-141.31 92.72 0.07 1
82 10/17/2023 01:05:42 -80.96, 26.13 87.25 10/17/2023 01:05:41 -80.96, 26.13 87.25 0.07 1
83 10/17/2023 01:56:42 80.96,-166.52 92.78 10/17/2023 01:56:41 80.96,-166.52 92.78 0.07 1
84 10/17/2023 02:47:41 -80.96, 0.53 87.24 10/17/2023 02:47:40 -80.96, 0.54 87.24 0.07 1
85 10/17/2023 03:38:41 80.96, 167.89 92.80 10/17/2023 03:38:40 80.96, 167.90 92.80 0.07 1
86 10/17/2023 04:29:39 -80.96, -24.68 87.18 10/17/2023 04:29:38 -80.96, -24.68 87.18 0.07 1
87 10/17/2023 05:20:40 80.96, 142.31 92.81 10/17/2023 05:20:39 80.96, 142.31 92.81 0.07 1
88 10/17/2023 06:11:38 -80.96, -50.28 87.16 10/17/2023 06:11:37 -80.96, -50.27 87.16 0.07 1
89 10/17/2023 07:02:39 80.96, 116.72 92.83 10/17/2023 07:02:38 80.96, 116.72 92.83 0.07 1
90 10/17/2023 07:53:37 -80.96, -75.87 87.15 10/17/2023 07:53:36 -80.96, -75.87 87.15 0.07 1
91 10/17/2023 08:44:37 80.96, 91.51 92.89 10/17/2023 08:44:36 80.96, 91.51 92.89 0.07 1
92 10/17/2023 09:35:36 -80.96,-101.46 87.13 10/17/2023 09:35:35 -80.96,-101.46 87.13
